This is the latest recevied weather packets stored in our database for station/object K5NOC-12. If no packets are shown the sender has not sent any weather packets the latest 10 day(s).
| Time | Temp. | Humidity | Pressure | Rain* | Wind** | Luminosity | Snow |
|---|---|---|---|---|---|---|---|
| 1777474554 | 9.44° C | 72% | 1021.2 hPa | 0 mm | - | - | - |
| 1777473654 | 8.89° C | 74% | 1021.5 hPa | 0 mm | - | - | - |
| 1777472753 | 8.33° C | 74% | 1021.6 hPa | 0 mm | - | - | - |
| 1777471853 | 8.33° C | 74% | 1021.5 hPa | 0 mm | - | - | - |
| 1777470953 | 7.78° C | 76% | 1021.5 hPa | 0 mm | - | - | - |
| 1777470053 | 7.78° C | 77% | 1021.4 hPa | 0 mm | - | - | - |
| 1777469153 | 7.22° C | 78% | 1021.2 hPa | 0 mm | - | - | - |
| 1777468253 | 7.22° C | 78% | 1021.1 hPa | 0 mm | - | - | - |
| 1777467353 | 7.22° C | 79% | 1021.1 hPa | 0 mm | - | - | - |
| 1777466452 | 6.67° C | 79% | 1020.7 hPa | 0 mm | - | - | - |
| 1777465552 | 6.67° C | 78% | 1020.5 hPa | 0 mm | - | - | - |
| 1777464652 | 7.22° C | 78% | 1020.5 hPa | 0 mm | - | - | - |
| 1777463752 | 7.22° C | 78% | 1020.4 hPa | 0 mm | - | - | - |
| 1777462852 | 7.22° C | 76% | 1020.3 hPa | 0 mm | - | - | - |
| 1777461952 | 7.78° C | 75% | 1019.5 hPa | 0 mm | - | - | - |
| 1777461051 | 7.78° C | 74% | 1019.5 hPa | 0 mm | - | - | - |
| 1777460151 | 8.33° C | 73% | 1019.5 hPa | 0 mm | - | - | - |
| 1777459251 | 8.33° C | 72% | 1019.3 hPa | 0 mm | - | - | - |
| 1777458351 | 8.33° C | 72% | 1019.4 hPa | 0 mm | - | - | - |
| 1777457451 | 8.89° C | 72% | 1019.5 hPa | 0 mm | - | - | - |
| 1777456550 | 8.89° C | 71% | 1019.5 hPa | 0 mm | - | - | - |
| 1777455650 | 8.89° C | 70% | 1019.4 hPa | 0 mm | - | - | - |
| 1777454750 | 8.89° C | 69% | 1019.4 hPa | 0 mm | - | - | - |
| 1777453850 | 9.44° C | 68% | 1019.3 hPa | 0 mm | - | - | - |
| 1777452950 | 9.44° C | 66% | 1019.4 hPa | 0 mm | - | - | - |
* Rain latest hour (hover to see other rain measurements)
** Current wind speed in m/s (hover to see current wind gust speed)